Regional Weather Roundup
Issued by NWS Newport/Morehead, NC

Current Version | Previous Version | Text Only | Print | Product List | Glossary On
Versions: 1 2 3 4 5 6 7 8 9 10 11 12 13 14 15 16 17 18 19 20 21 22 23 24 25 26 27 28 29 30 31 32 33 34 35 36 37 38 39 40 41 42 43 44 45 46 47 48 49 50
000
ASUS42 KMHX 170213
RWRMHX
WEATHER ROUNDUP FOR EASTERN NORTH CAROLINA
NATIONAL WEATHER SERVICE NEWPORT/MOREHEAD CITY NC
900 PM EST MON JAN 16 2017

NOTE: "FAIR" INDICATES FEW OR NO CLOUDS BELOW 12,000 FEET
WITH NO SIGNIFICANT WEATHER AND/OR OBSTRUCTIONS TO VISIBILITY

NCZ015>017-031-032-045>047-102-103-170300-
NORTH COAST

CITY           SKY/WX    TMP DP  RH WIND       PRES   REMARKS
EDENTON        CLOUDY    43  40  88 CALM      30.38S
ELIZABETH CITY CLOUDY    43  39  86 N3        30.38S
KITTY HAWK     NOT AVBL
MANTEO         CLEAR     42  40  92 CALM      30.37S

$$

NCZ045>047-081-094-103-104-170300-
CENTRAL COAST

CITY           SKY/WX    TMP DP  RH WIND       PRES   REMARKS
FRISCO         PTCLDY    47  42  83 N6        30.35S

$$

NCZ095-097-098-100-101-170300-
SOUTHERN COAST

CITY           SKY/WX    TMP DP  RH WIND       PRES   REMARKS
BEAUFORT       CLOUDY    48  43  82 N3        30.36F
CEDAR ISLAND   NOT AVBL
JACKSONVILLE   MOCLDY    52  46  80 NE5       30.35S
PINEY ISLAND   CLOUDY   N/A N/A N/A N5        30.35F
WILMINGTON     CLOUDY    53  47  79 E3        30.34F


$$

NCZ011>013-027>030-043-044-078>080-089-090>093-098-170300-
COASTAL PLAIN

CITY           SKY/WX    TMP DP  RH WIND       PRES   REMARKS
AHOSKIE          N/A     44  39  81 CALM      30.37F
CLINTON        CLOUDY    52  46  82 CALM      30.35F
ELIZABETHTOWN  CLOUDY    52  47  83 CALM      30.35S
GOLDSBORO      CLOUDY    51  45  82 CALM      30.33F
GREENVILLE     CLOUDY    50  45  81 E3        30.36F
HAVELOCK       CLOUDY    48  44  86 NE3       30.37S
KENANSVILLE    CLOUDY    52  45  76 CALM      30.36S
KINSTON        CLOUDY    52  43  71 CALM      30.36F
NEW BERN       CLOUDY    50  43  77 NE3       30.37F
RICHLANDS      CLOUDY    51  46  83 NE3       30.36F
ROCKY MOUNT    CLOUDY    48  43  82 CALM      30.36F
WASHINGTON     CLOUDY    46  40  78 CALM      30.37S
WHITEVILLE     CLOUDY    52  47  83 CALM      30.34S

$$

AMZ130-135-150-152-154-156-158-170-250-252-270-ANZ085-086-088-633-658-670-170300-
MARINE OBSERVATIONS

STATION/POSITION TIME  TEMP    WIND        PRES    WAVE   SWELL
                       AIR SEA DIR/SP/G            HT/PER HT/PER
                 (UTC) (F)     (DEG/KT/KT) (MB)    (FT/S) (FT/S)
CHESAPEAKE LIGHT NOT AVBL
64 E VA BEACH    0150   54 59   30/  8/ 10 1027.5    3/10   3/10
DUCK             0148   45 44  340/  7/  8 1027.7
2 E DUCK         0130      44                N/A     2/11
OREGON INLET     0148          330/  5/  7   N/A
13E OREGON INLT  NOT AVBL
HATTERAS CG      0148   47 53  350/  9/ 10 1027.4
DIAMOND BUOY     0150   55 73   10/ 14/ 16 1027.1    3/ 8   2/ 8
CAPE LOOKOUT     0100   48      10/  7/  9 1027.7
BEAUFORT LAB     0148   47 49   10/  5/  6 1027.0
30 SE NEW RVR IN 0108   54 62   40/ 10/ 14 1027.5
30 SE NEW RVR IN 0143      61                N/A     3/10   2/11
27 SE WRIGHTSVLE 0108   60 68   50/ 12/ 16 1026.7
5 SE WRIGHTSVLE  0108   54      50/ 12/ 16 1027.5
225 S CAPE HAT   0150   70 71  130/  8/ 10 1027.3    4/ 8   3/ 8
41 SE CHARLESTON 0050   66 70   20/ 14/ 16 1025.6    4/ 6   3/10

$$



USA.gov is the U.S. government's official web portal to all federal, state and local government web resources and services.